Find Starlink 30313

NORAD ID: 57676 Int'l Des: 2023-124 Owner: SPXS Country: US Constellation: starlink operational
LEOCIRCULAR

Current View

Loading 3D Globe...

About Starlink 30313

Starlink 30313 (NORAD 57676) is a starlink constellation satellite (v2 mini) launched Aug 22, 2023 by SPXS of US. It operates in LEO, CIRCULAR orbit with a mass of 730.00 kg.

About Starlink 30313

Description loading...

Upcoming Passes

Passes for default location (London). Set your location on the main map for personalized predictions.

Altitude History

Loading altitude history...

Two-Line Element Set

1 57676U 23124P 26171.15269016 .00000675 00000-0 34950-4 0 9993
2 57676 53.1615 91.0508 0001527 102.2240 257.8932 15.30177552159257
Epoch: Jun 20, 2026 • Age: 18 hours

Current Status

Altitude 477.1 km
Velocity 7.63 km/s
Sub-Earth Point 35.67°N, 3.84°E
Launch Date Aug 22, 2023
Age 2.8 years
Type internet

Technical Details

Classification Payload
Mass 730.00 kg
Dry Mass 700.00 kg
Total Mass 730.00 kg
Length 0.30 m
Diameter 4.10 m
Span 29.00 m
Shape Box + pan
Manufacturer SPXS
Bus Type Starlink V2M
Phase Status In Orbit
Owner/State SPXS/US

Most Searched